« Back
NWS Peachtree City, Ga » Text Product » GA Regional Weather Roundup


Printer-friendly Version
Current Version              Previous Versions:   1  2  3  4  5  6  7  8  9  

Regional Weather Roundup

783
ASUS42 KFFC 010210
RWRGA
WEATHER ROUNDUP FOR GEORGIA
NATIONAL WEATHER SERVICE PEACHTREE CITY GA
1000 PM EDT FRI JUL 31 2015

NOTE: "FAIR" INDICATES FEW OR NO CLOUDS BELOW 12,000 FEET WITH NO
SIGNIFICANT WEATHER AND/OR OBSTRUCTIONS TO VISIBILITY.

* = USE WITH CAUTION. THE STATIONS MARKED WITH AN ASTERISK MAY NOT
REPORT WEATHER SUCH AS PRECIPITATION, FOG, OR THUNDER AND ARE NOT
QUALITY CONTROLLED BY NWS.

THE REMARK "TC" DENOTES TEMPERATURE READING IN DEGREES CELSIUS.

GAZ001>058-010300-
NORTH GEORGIA

CITY           SKY/WX    TMP DP  RH WIND       PRES   REMARKS
ATLANTA        MOCLDY    77  71  82 S5        29.97R
ATHENS         PTCLDY    81  71  71 VRB3      29.95R
CHAMBLEE       CLOUDY    83  64  52 CALM      29.97R
PEACHTREE CITY PTCLDY    78  73  84 CALM      29.96S
ROME           CLEAR     77  61  57 CALM      29.97R
WEST ATLANTA   CLOUDY    83  61  47 VRB3      29.96R
GAINESVILLE    PTCLDY    81  62  52 N8        29.99R
CARTERSVILLE   CLEAR     75  60  59 CALM      29.97R


CITY           SKY/WX    TMP DP  RH WIND       PRES   REMARKS
DALTON*        CLEAR     73  63  68 N8        29.97S
MARIETTA       MOCLDY    81  63  54 NW7       29.97R
KENNESAW*      PTCLDY    79  63  57 NW6       29.97R
BLAIRSVILLE*     N/A     68  47  45 CALM      30.05R
$$

GAZ059>098-102>109-010300-
CENTRAL GEORGIA

CITY           SKY/WX    TMP DP  RH WIND       PRES   REMARKS
AUGUSTA-BUSH   MOCLDY    80  72  76 S7        29.93R
AUGUSTA-DANIEL MOCLDY    83  72  69 SE6       29.94R
COLUMBUS       CLOUDY    77  73  87 NW3       29.92R
MACON          MOCLDY    74  72  93 SE3       29.93R
ROBINS AFB     MOCLDY    74  74  99 SE2       29.93R


CITY           SKY/WX    TMP DP  RH WIND       PRES   REMARKS
LAGRANGE*      CLOUDY    79  79 100 CALM      29.94F
SYLVANIA*      CLOUDY    76  75  97 CALM      29.95S
MILLEDGEVILLE* MOCLDY    77  72  83 CALM      29.94R
$$

GAZ099>101-110>166-010300-
SOUTH GEORGIA

CITY           SKY/WX    TMP DP  RH WIND       PRES   REMARKS
SAVANNAH       CLOUDY    77  74  90 SE6       29.94S
VALDOSTA       LGT RAIN  76  74  93 S10       29.95R
ALMA           CLOUDY    77  73  87 S5        29.94R
ST SIMONS      CLOUDY    77  73  87 W6        29.94R
FT STEWART     CLOUDY    77  77 100 S2        29.91R
ALBANY         LGT RAIN  76  74  93 SW8       29.94R
HUNTER AFB     CLOUDY    79  78  95 S8        29.92R THUNDER
MOODY AFB      LGT RAIN  75  73  94 SE6       29.93S
BRUNSWICK      CLOUDY    77  73  88 W6        29.95R


CITY           SKY/WX    TMP DP  RH WIND       PRES   REMARKS
BAINBRIDGE*    TSTM      75  73  94 N24G33    29.95R VSB 1/2
MOULTRIE*      CLOUDY    79  72  78 SE3       29.95R THUNDER
VIDALIA*       CLOUDY    77  72  83 SE5       29.95R
WAYCROSS*      CLOUDY    78  77  96 S5        29.89S
DOUGLAS*       CLOUDY    77  75  94 CALM      29.92F
$$



USA.gov is the U.S. government's official web portal to all federal, state and local government web resources and services.